DW5683 Weather Reports


time (UTC)temp
F
wind
direction
speed
knots
gust
knots
rain 1hr
in
rain 24hr
in
rain mn
in
humidity
%
barometer
mb
20260506044543 60 0 0.0 0.0 0.00 0.22 0.00 81 1016.4
20260506043037 60 0 0.0 0.0 0.00 0.22 0.00 80 1016.2
20260506041550 60 0 0.0 0.0 0.00 0.22 0.00 80 1016.0
20260506040035 60 0 0.0 0.0 0.00 0.22 0.00 79 1015.8
20260506034547 61 0 0.0 3.5 0.00 0.51 0.00 79 1015.6
20260506033040 61 0 0.0 3.5 0.00 0.51 0.00 78 1015.6
20260506031537 61 164 0.0 1.7 0.00 0.51 0.00 78 1015.4
20260506030039 61 0 0.0 0.0 0.00 0.51 0.00 78 1015.3
20260506024536 62 0 0.0 3.5 0.00 0.62 0.00 76 1015.0
20260506023034 62 164 0.9 3.5 0.00 0.62 0.00 76 1015.0
20260506021538 62 164 0.0 3.5 0.00 0.62 0.00 75 1014.6
20260506020042 63 0 0.0 1.7 0.00 0.62 0.00 74 1014.6
20260506014538 63 164 0.0 3.5 0.00 0.74 0.00 73 1014.4
20260506013050 63 0 0.9 3.5 0.00 0.74 0.00 72 1014.4
20260506011543 63 0 0.9 2.6 0.00 0.74 0.00 72 1014.3
20260506010043 64 184 0.0 4.3 0.00 0.74 0.00 71 1014.4
20260506004537 64 191 0.0 2.6 0.00 0.80 0.00 69 1014.3
20260506003038 64 193 0.0 2.6 0.00 0.80 0.00 67 1014.4
20260506001537 64 199 0.9 3.5 0.00 0.80 0.00 69 1014.0
20260506000037 65 209 0.0 2.6 0.00 0.80 0.00 69 1014.1
20260505234536 65 0 0.0 2.6 0.00 0.91 0.00 69 1014.2
20260505233035 65 0 0.0 1.7 0.00 0.91 0.00 67 1014.1
20260505231534 65 210 0.0 2.6 0.00 0.91 0.00 73 1014.1
20260505230100 64 0 0.0 0.0 0.00 0.91 0.00 71 1014.3
20260505224538 63 0 0.0 0.0 0.00 1.00 0.00 70 1014.3
20260505223042 63 0 0.0 0.0 0.00 1.00 0.00 71 1014.5
20260505221541 63 0 0.0 0.9 0.00 1.00 0.00 75 1014.5
20260505220049 63 0 0.0 1.7 0.00 1.00 0.00 74 1014.6
20260505214538 63 0 0.0 2.6 0.00 1.05 0.00 73 1014.7
20260505213037 63 210 0.0 2.6 0.00 1.05 0.00 73 1014.7
20260505211534 63 210 0.0 3.5 0.00 1.05 0.00 74 1014.7
20260505210038 63 210 0.9 4.3 0.00 1.05 0.00 73 1014.6
20260505204538 64 221 0.9 4.3 0.00 1.09 0.00 73 1014.6
20260505203038 65 0 0.9 3.5 0.00 1.09 0.00 70 1014.7
20260505201540 66 219 1.7 4.3 0.00 1.09 0.00 74 1014.7
20260505200041 67 0 0.0 1.7 0.00 1.09 0.00 72 1014.8
20260505194541 66 0 0.0 2.6 0.00 1.11 0.00 75 1015.0
20260505193042 64 178 0.0 5.2 0.00 1.11 0.00 75 1015.0
20260505191543 63 0 0.9 3.5 0.00 1.11 0.00 78 1015.0
20260505190038 62 141 0.0 2.6 0.00 1.11 0.00 81 1015.1
20260505184538 61 0 0.0 3.5 0.00 1.11 0.00 78 1015.1
20260505183039 61 132 0.0 3.5 0.00 1.11 0.00 81 1015.0
20260505181541 60 130 0.0 2.6 0.00 1.11 0.00 81 1014.9
20260505180044 59 128 0.0 1.7 0.00 1.11 0.00 88 1014.8
20260505174538 58 127 0.0 2.6 0.00 1.11 0.00 92 1014.7
20260505173038 56 0 0.0 2.6 0.00 1.11 0.00 93 1014.7
20260505171537 55 0 0.0 2.6 0.00 1.11 0.00 94 1014.8
20260505170036 55 0 0.0 3.5 0.00 1.11 0.00 94 1014.8
20260505164534 55 0 0.0 3.5 0.00 1.11 0.00 94 1014.6
20260505163032 54 0 0.0 1.7 0.00 1.11 0.00 94 1014.6
20260505161543 54 0 0.0 1.7 0.00 1.11 0.00 94 1014.6
20260505153035 52 0 0.0 1.7 0.00 1.11 0.00 94 1014.5
20260505151539 52 0 0.0 1.7 0.00 1.11 0.00 94 1014.4
20260505124543 51 0 0.0 1.7 0.00 1.11 0.00 93 1013.5
20260505123037 51 0 0.0 0.9 0.00 1.11 0.00 93 1013.5
20260505121541 51 0 0.0 1.7 0.00 1.11 0.00 93 1013.4
20260505120041 51 0 0.0 3.5 0.00 1.11 0.00 93 1013.4
20260505114537 51 126 0.0 0.9 0.00 1.11 0.00 93 1013.5
20260505113036 51 0 0.0 0.9 0.00 1.11 0.00 93 1013.6
20260505111535 52 0 0.0 0.0 0.00 1.11 0.00 93 1013.6
20260505101542 52 0 0.0 0.0 0.00 1.11 0.00 93 1013.6
20260505100036 51 0 0.0 0.0 0.00 1.11 0.00 93 1013.6
20260505094539 51 0 0.0 0.0 0.00 1.11 0.00 93 1013.4
20260505093039 51 0 0.0 0.0 0.00 1.11 0.00 93 1013.8
20260505091536 51 0 0.0 0.0 0.00 1.11 0.00 93 1013.8
20260505090042 51 0 0.0 0.0 0.00 1.11 0.00 93 1014.1
20260505084552 51 0 0.0 0.0 0.00 1.11 0.00 93 1014.1
20260505083054 51 0 0.0 0.9 0.00 1.11 0.00 93 1014.3
20260505081537 52 0 0.0 0.0 0.00 1.11 0.00 93 1014.4
20260505080044 51 0 0.0 0.0 0.00 1.11 0.00 93 1014.3
20260505074535 51 0 0.0 0.0 0.00 1.11 0.00 93 1014.2
20260505073035 51 0 0.0 0.0 0.01 1.11 0.00 93 1014.4
20260505071546 51 0 0.0 0.0 0.02 1.11 0.00 93 1014.4
20260505070037 51 0 0.0 0.0 0.03 1.11 0.00 93 1014.4
20260505064537 51 0 0.0 0.0 0.03 1.11 1.11 93 1014.2
20260505063032 51 0 0.0 0.0 0.06 1.10 1.10 93 1014.5
20260505061534 51 0 0.0 0.0 0.08 1.09 1.09 93 1014.6